Weather Roundup
Issued by NWS Chicago, IL

Home | Current Version | Previous Version | Graphics & Text | Print | Product List | Glossary On
Versions: 1 2 3 4 5 6 7 8 9 10 11 12 13 14 15 16 17 18 19 20 21 22 23 24 25 26 27 28 29 30 31 32 33 34 35 36 37 38 39 40 41 42 43 44 45 46 47 48 49 50
000
NZUS59 KLOT 230306
HRRLOT

CHICAGO AREA WEATHER ROUNDUP
NATIONAL WEATHER SERVICE CHICAGO/ROMEOVILLE IL
1000 PM CDT FRI AUG 22 2014

NOTE: "FAIR" INDICATES FEW OR NO CLOUDS BELOW 12,000 FEET WITH NO
SIGNIFICANT WEATHER AND/OR OBSTRUCTIONS TO VISIBILITY.

* THESE STATIONS ARE NOT UNDER NWS QUALITY CONTROL. THEY ALSO MAY NOT
  REPORT WEATHER SUCH AS PRECIPITATION OR FOG.

ILZ005-006-012>014-019>023-230400-
NORTHEAST ILLINOIS

CITY           SKY/WX    TMP DP  RH WIND       PRES   REMARKS
OHARE          MOCLDY    79  70  74 CALM      29.98R HX  82
MIDWAY         MOCLDY    82  75  79 S3        29.98R HX  89
AURORA         PTCLDY    75  71  87 CALM      29.99R
LANSING*       PTCLDY    73  71  94 CALM      29.99R
JOLIET*        PTCLDY    75  72  91 CALM      29.99R
WAUKEGAN       CLOUDY    73  71  93 CALM      29.99R FOG
DUPAGE AIRPORT CLOUDY    77  73  87 CALM      29.99R
WHEELING       PTCLDY    77  73  87 CALM      30.00R
KANKAKEE*      CLEAR     72  71  98 CALM      30.00S
MORRIS*        PTCLDY    75  75 100 S3        29.98S
LEWIS AIRPORT* PTCLDY    74  73  95 S3        29.99R
NORTHERLY IS     N/A     74  71  91 CALM        N/A
$$

WIZ051-052-058>065-066-070>072-230400-
SOUTHEAST WISCONSIN

CITY           SKY/WX    TMP DP  RH WIND       PRES   REMARKS
MILWAUKEE      FOG       70  69  97 N3        30.01R VSB 1/2
KENOSHA*       CLOUDY    73  72  96 NE6       30.00R FOG
RACINE*        CLOUDY    72  70  93 N5        30.02R FOG
BURLINGTON     DRIZZLE   72  71  97 E3        30.00R
WAUKESHA       CLOUDY    70  68  94 E5        30.02R FOG
WEST BEND      FOG       68  66  94 E3        30.02R VSB 1
$$

INZ001>003-010>013-019-020-230400-
NORTHWEST INDIANA

CITY           SKY/WX    TMP DP  RH WIND       PRES   REMARKS
GARY*          PTCLDY    78  73  86 CALM      29.99R HX  80
MICHIGAN CITY* NOT AVBL
RENSSELAER*    NOT AVBL
VALPARAISO     PTCLDY    75  71  87 CALM      30.00R
$$

LMZ740>746-230400-
SOUTHERN LAKE MICHIGAN

STATION/POSITION TIME  SKY/WX   TEMP WIND        PRES    VSBY
                                AIR  DIR/SP/G
                 (UTC)          (F)  (DEG/KT/KT) (MB)    (MI)
HARRISON CRIB    0300            75   80/  4/  4   N/A
BURNHAM HARBOR   0300            74   CALM  /  5   N/A
CALUMET HARBOR   0300            79  220/  2/  3 1014.2R
BURNS HARBOR     NOT AVBL
MICHIGAN CITY    0300            77   20/  1/  3   N/A
$$

ABBREVIATIONS USED IN REMARKS
   TC - TEMPERATURE IN CELSIUS
  WCI - WIND CHILL INDEX
   HX - HEAT INDEX
  VSB - VISIBILITY
$$



USA.gov is the U.S. government's official web portal to all federal, state and local government web resources and services.